STARLINK-30850, 58247

Orbit data source: Space-Track

STARLINK-30850, 58247 is a payload satellite owned by SpaceX/Seattle (US) in LEO that was launched on Wed, 08 Nov 2023 UTC via an FALCON 9 launch vehicle from the Air Force Eastern Test Range (AFETR). Payload-class satellites include a variety of spacecraft equipped with specific instruments for various scientific and technological missions. These include communications satellites like Starlink; space stations such as the ISS; scientific satellites like the Hubble; Earth observation satellites from companies like Planet Labs, Umbra, and HawkEye 360; GPS; miniature CubeSats for education and research; and military/defense satellites.

Loading next visibility...
Identifier
58247, 2023-171T
Orbit
LEO
Country
Flag of USUS
Related business
Manufacturer
SpaceX/Seattle
Mission
Operational Commercial Communications
Bus & Motor
STARLINK V2M, Unknown motor
Mass
730 kg wet, ~700 kg dry
Launch date (UTC)
2023-11-08 (3 years ago)
Launch vehicle
FALCON 9
Launch site
Air Force Eastern Test Range (AFETR)
Object type
Payload
Rocket body
Debris
Shape & HBR
Box + 2 Pan, 17.7 m
Radar Cross Section
33.884 m², Large (>1 m²)

Expand to show TLE details & history
Last TLE update: 2 days ago

TLE from 2 days ago
0 STARLINK-30850
1 58247U 23171T   26171.07559588  .00004049  00000-0  15664-3 0  9996
2 58247  43.0063  66.9577 0001234 280.8988  79.1725 15.27565683145398
Epoch: 2026-06-20T01:48Z
TLE epoch observation values (Epoch: 2026-06-20T01:48:51.484Z)
Latitude
0.00001°
Longitude
131.44777°
Altitude
482.709 km
Speed
7.626 km/s
True Right ascension
04h 27m 49s
True Declination
0° 00' 00"
Sunlit
Object was in daylight at epoch
Visualization orbit readout
Latitude
Unknown
Longitude
Unknown
Altitude
Unknown
Speed
Unknown
Apparent Right ascension
Unknown
Apparent Declination
Unknown
Sunlit
N/A
Visualization observer readout
Local Sidereal Time
21:27:40
Azimuth
Unknown
Elevation
Unknown
Doppler factor
Unknown
Orbital elements
Apogee altitude
485.883 km
Perigee altitude
484.189 km
Semi-major axis
6,863.173 km
Eccentricity
0.00012
Inclination
43.0063°
RAAN
66.9577°
Arg. of periapsis
280.8988°
True anomaly
79.18639°
Mean anomaly
79.1725°
Eccentric anomaly
79.17944°
Mean motion
3.8173 °/min
Orbital period
94.31 mins
BSTAR
0.00015664
Loading maneuver chart data...
Computing Atmospheric mass density...
Loading historical data...
Loading historical data...
Loading historical data...
Loading historical data...
Loading historical data...
Loading historical data...
Loading historical data...

Documentation

Showing up to 5 results
|